Content
SEND FEEDBACK

Daily
Averages
Monthly
Summary
Turkmenistan

ASHGABAT, TURKMENISTAN


Home > Asia > Turkmenistan
Elevation: 775 feet     Latitude: 37 58N     Longitude: 058 20E

WEATHER
 
SELECT A DAY
Number of Records: 177,491;   Date Range: 3/15/97 - 9/3/14
 
SHARE

PRINT THIS DATA

[ ← Previous Day ]
WEATHER ALMANAC - MAY 3, 2013
[ Next Day → ]
[ °C ]   °F
Weather ElementAverageHighLow
Temperature74.8 °F87.8 °F (2:00 pm)59 °F (4:00 am)
Dewpoint36.6 °F47 °F (8:00 am)26.6 °F (9:00 pm)
Humidity26.3 %51 % (6:00 am)12 % (2:00 pm)
Barometer30.01 in30.04 in (8:00 am)29.96 in (5:00 pm)
Wind Speed5.5 mph11.2 mph (5:00 pm)
Wind Gust15.7 mph (3:00 am)
Weather ElementAverage
Visibility6.2 mi
Wind DirectionSE (133.5 °)

Weather ElementTotal
Precipitation---
Cooling Degree Days8.4 (Base 65)
Growing Degree Days23.4 (Base 50)
Averaged from 32 records on May 3, 2013
WEATHER CONDITIONS BREAKOUT
WIND DIRECTION BREAKOUT
WEATHER BY HOUR - MAY 3, 2013
[ °C ]   °F
Local TimeTemperatureDewpointHumidityBarometerVisibilityWind DirectionWind SpeedGust SpeedPrecipitationEventsConditions
1:00 AM64.4 °F39.2 °F40 %29.98 in6.2 miNW (320°)4.5 mphScattered Clouds
2:00 AM62.0 °F44.0 °F39 %29.99 in6.0 miWSW (240°)6.7 mphScattered Clouds
2:00 AM60.8 °F41.0 °F48 %29.98 in6.2 miWSW (240°)6.7 mphScattered Clouds
3:00 AM62.6 °F39.2 °F42 %29.98 in6.2 miSW (230°)4.5 mph15.7 mphScattered Clouds
4:00 AM59.0 °F39.2 °F48 %29.98 in6.2 miWSW (250°)6.7 mphScattered Clouds
5:00 AM59.0 °F44.0 °F45 %29.98 in6.0 miWSW (250°)4.5 mphMostly Cloudy
5:00 AM59.0 °F39.2 °F48 %29.98 in6.2 miWSW (250°)4.5 mphMostly Cloudy
6:00 AM59.0 °F41.0 °F51 %29.98 in6.2 miVariable2.2 mphMostly Cloudy
7:00 AM62.6 °F41.0 °F45 %30.01 in6.2 miVariable2.2 mphMostly Cloudy
8:00 AM64.0 °F47.0 °F43 %30.01 in6.0 miCalmPartly Cloudy
8:00 AM69.8 °F39.2 °F33 %30.04 in6.2 miCalmMostly Cloudy
9:00 AM73.4 °F39.2 °F29 %30.04 in6.2 miNW (310°)8.9 mphMostly Cloudy
10:00 AM78.8 °F33.8 °F20 %30.04 in6.2 miNorth (350°)4.5 mphMostly Cloudy
11:00 AM79.0 °F42.0 °F17 %30.00 in6.0 miNNE (20°)2.2 mphPartly Cloudy
11:00 AM82.4 °F35.6 °F19 %30.04 in6.2 miNNE (30°)4.5 mphMostly Cloudy
12:00 PM86.0 °F32.0 °F14 %30.04 in6.2 miSE (140°)6.7 mphScattered Clouds
12:30 PM86.0 °F32.0 °F14 %30.04 in6.2 miNorth (360°)6.7 mphScattered Clouds
1:00 PM84.2 °F30.2 °F14 %30.04 in6.2 miEast (80°)8.9 mphMostly Cloudy
2:00 PM86.0 °F41.0 °F12 %29.99 in6.0 miNorth (10°)8.9 mphMostly Cloudy
2:00 PM87.8 °F28.4 °F12 %30.04 in6.2 miNNE (30°)8.9 mphMostly Cloudy
3:00 PM87.8 °F28.4 °F12 %30.01 in6.2 miNNE (20°)6.7 mphMostly Cloudy
4:00 PM86.0 °F30.2 °F13 %30.01 in6.2 miEast (80°)4.5 mphMostly Cloudy
5:00 PM85.0 °F43.0 °F14 %29.96 in6.0 miENE (70°)8.9 mphMostly Cloudy
5:00 PM86.0 °F30.2 °F13 %30.01 in6.2 miENE (60°)11.2 mphMostly Cloudy
6:00 PM86.0 °F28.4 °F12 %30.01 in6.2 miEast (80°)6.7 mphMostly Cloudy
7:00 PM86.0 °F28.4 °F12 %29.98 in6.2 miVariable2.2 mphMostly Cloudy
8:00 PM82.0 °F40.0 °F13 %29.96 in6.0 miENE (70°)6.7 mphPartly Cloudy
8:00 PM80.6 °F28.4 °F15 %30.01 in6.2 miENE (70°)6.7 mphMostly Cloudy
9:00 PM77.0 °F26.6 °F16 %30.04 in6.2 miNE (50°)2.2 mphScattered Clouds
10:00 PM71.6 °F35.6 °F27 %30.04 in6.2 miSE (140°)4.5 mphPartly Cloudy
11:00 PM69.0 °F45.0 °F30 %30.03 in6.0 miSSW (200°)6.7 mphScattered Clouds
11:00 PM69.8 °F37.4 °F31 %30.04 in6.2 miSouth (190°)6.7 mphPartly Cloudy
Hourly data recorded from UTAA, located miles away from Ashgabat, Turkmenistan







STORIES FROM OUR PARTNERS